Flag for Dominican Republic Past Weather in Santiago de los Caballeros, Dominican Republic — Yesterday and Last 2 Weeks

82 °F

Partly sunny.

Feels Like: 89 °F
Forecast: 73 / 88 °F
Wind: 12 mph from East

Location: Santiago

Current Time: Oct 20, 2016 at 3:45:19 PM

Latest Report: Oct 20, 2016 at 3:00 PM

Visibility: N/A

Pressure: 29.77 "Hg

Humidity: 79%

Dew Point: 75 °F

Location of Santiago de los CaballerosLocation

Past Weather in Santiago de los Caballeros — Graph


Santiago de los Caballeros Temperature Yesterday

Maximum temperature yesterday: 84 °F (at 3:00 PM)
Minimum temperature yesterday: 73 °F (at 1:00 AM)
Average temperature yesterday: 78 °F

High & Low Weather Summary for the Past Weeks

High91 °F (Oct 6, 1:00 PM)100% (Oct 6, 2:00 AM)30.04 "Hg (Oct 6, 2:00 AM)
Low72 °F (Oct 7, 5:00 AM)52% (Oct 10, 1:00 PM)29.71 "Hg (Oct 17, 4:00 PM)
Average80 °F85%29.86 "Hg
* Reported Oct 5 2:00 PM — Oct 20 2:00 PM, Santiago de los Caballeros, Weather by CustomWeather, © 2016

Note: Actual official high and low records may vary slightly from our data, if they occured in-between our weather recording intervals... More about our weather records


Santiago de los Caballeros Weather History for the Previous 24 Hours

Scroll right to see more
Time TempWeatherWind HumidityBarometerVisibility
2:00 PM
Thu, Oct 20
81 °FRain. Partly sunny.8 mph84%29.80 "Hg4 mi
1:00 PM82 °FPartly sunny.3 mph79%29.83 "HgN/A
12:00 PM84 °FPassing clouds.6 mph74%29.83 "HgN/A
11:00 AM82 °FPartly sunny.8 mph79%29.83 "HgN/A
10:00 AM81 °FPartly sunny.5 mph94%29.83 "HgN/A
9:00 AM77 °FPartly sunny.9 mph94%29.83 "HgN/A
8:00 AM77 °FPartly sunny.6 mph94%29.83 "HgN/A
7:00 AM75 °FPartly sunny.7 mph100%29.80 "HgN/A
6:00 AM75 °FPassing clouds.6 mph100%29.80 "HgN/A
5:00 AM75 °FPassing clouds.7 mph100%29.77 "HgN/A
4:00 AM75 °FPassing clouds.7 mph100%29.77 "HgN/A
3:00 AM75 °FPassing clouds.5 mph100%29.77 "HgN/A
2:00 AM75 °FPassing clouds.5 mph100%29.80 "HgN/A
1:00 AM77 °FPassing clouds.7 mph94%29.80 "HgN/A
12:00 AM77 °FPartly cloudy.7 mph94%29.83 "HgN/A
11:00 PM
Wed, Oct 19
77 °FPassing clouds.5 mph94%29.86 "HgN/A
10:00 PM79 °FPassing clouds.5 mph94%29.83 "HgN/A
9:00 PM79 °FThunderstorms. Passing clouds.5 mph94%29.83 "HgN/A
8:00 PM79 °FThunderstorms. Partly cloudy.5 mph89%29.80 "Hg5 mi
7:00 PM81 °FPartly cloudy.3 mph89%29.80 "HgN/A
6:00 PM82 °FPartly sunny.5 mph84%29.74 "HgN/A
5:00 PM84 °FScattered showers. Scattered clouds.6 mph74%29.74 "Hg5 mi
4:00 PM84 °FBroken clouds.5 mph79%29.74 "HgN/A
3:00 PM84 °FScattered clouds.7 mph74%29.74 "HgN/A
Weather by CustomWeather, © 2016

See weather overviewHow to use our weather pages